www.pogodaiklimat.ru

Погода и климат >> Архив погоды >> Мексика >> Mexico City


АРХИВ ПОГОДЫ в Mexico City

Время (UTC), дата Ветер
(напр.,м/с)
 
Видим.   Явления Облачность Т
(С)
Тd
(С)
f
(%)
Тe
(С)
Тes
(С)
Комфортность P
(гПа)
Po
(гПа)
Тmin
(С)
Tmax
(С)
R
(мм)
R24
(мм)
S
(см)
18 12.09 СВ 2 4000 м мгла ясно +20.0 +8.9 49 +22 +42 комфорт 1013.9 775.9 +9.5 +20.5
21 12.09 СЗ 3 12 км дым ясно +23.8 +6.6 33 +24 +35 комфорт 1008.8 773.8
00 13.09 С 3 20 км дым ясно +21.5 +5.9 36 +22 +23 комфорт 1005.6 773.4 +9.5 +24.4
06 13.09 штиль 0 17 км дым ясно +14.3 +10.3 77 +14 +14 по сезону 1008.4 775.8 +9.5 +24.4
09 13.09 штиль 0 14 км дым ясно +12.5 +9.1 80 +12 +12 по сезону 1009.8 775.2
12 13.09 штиль 0 10 км дым 6/0 2000 м
[Ac lent]
+11.9 +9.1 83 +11 +11 по сезону 1012.4 775.3 +11.4 +24.4
15 13.09 СЗ 1 3000 м мгла 6/0 2000 м
[Ac trans Ci fib]
+15.0 +10.6 75 +16 +21 по сезону 1014.7 776.3
18 13.09 СВ 2 4000 м мгла 9/0 2000 м
[Ac As]
+22.6 +14.2 59 +26 +33 жарко 1012.3 775.5 +11.1 +23.5
21 13.09 С 3 4000 м дым 10/5 750 м
[Cu Sc Ac und]
+23.7 +10.6 44 +25 +27 комфорт 1007.2 773.4
00 14.09 З 1 6000 м дым 10/4 600 м
[Sc diur, vesp Ac und]
+22.2 +10.2 46 +24 +24 комфорт 1004.8 773.4 +11.1 +25.6
03 14.09 В 1 6000 м дым 9/3 800 м
[Sc diur, vesp As op]
+19.1 +10.6 58 +21 +21 комфорт 1005.7 775.3
06 14.09 С 3 3000 м дым 10/0 2000 м
[As op Cs]
+16.6 +11.7 73 +16 +16 тепло 1007.4 776.1 +11.1 +25.6
09 14.09 СЗ 2 1000 м 10/0 2000 м
[As op Cs]
+15.6 +11.9 79 +16 +16 тепло 1008.3 775.5
12 14.09 С 2 2000 м дым 10/0 2000 м
[As op Cs]
+15.2 +12.1 82 +15 +15 тепло 1009.9 775.4 +1.5 +25.6
15 14.09 СЗ 1 3000 м мгла 8/4 750 м
[Cu Sc Ac As]
+18.0 +12.9 72 +19 +22 тепло 1011.9 776.3
18 14.09 З 2 4000 м мгла 4/3 750 м
[Cu hum Ac trans]
+22.8 +11.6 49 +25 +38 комфорт 1010.1 775.6 +15.0 +23.5
21 14.09 С 3 6000 м дым 9/5 750 м
[Cu Sc As op]
+25.2 +10.2 39 +26 +28 жарко 1005.7 773.7
00 15.09 ЮВ 4 8000 м дым 10/5 600 м
[Sc diur, vesp Ac trans]
+23.2 +13.9 56 +27 +27 душно 1003.9 773.8 +15.0 +26.4
03 15.09 СВ 1 6000 м дым 5/0 600 м
[As op]
+19.6 +13.0 66 +22 +22 комфорт 1005.9 776.0
06 15.09 СЗ 2 8000 м дым ясно +16.2 +12.2 77 +16 +16 тепло 1007.2 776.2 +15.0 +26.4
09 15.09 СЗ 1 6000 м дым 9/0 2000 м
[Ac trans]
+14.8 +12.0 83 +15 +15 по сезону 1008.1 775.3
12 15.09 штиль 0 5000 м дым 8/0 2000 м
[Ac und]
+14.8 +11.7 82 +15 +15 тепло 1010.1 775.3 +14.4 +26.4
15 15.09 С 1 4000 м мгла 6/0 2000 м
[Ac trans]
+17.4 +11.6 69 +18 +24 тепло 1012.8 776.6
18 15.09 СЗ 4 8000 м дым 1/0 2000 м
[Ac trans]
+22.6 +7.5 38 +24 +36 комфорт 1010.8 775.8 +14.4 +23.3
21 15.09 СВ 3 12 км дым 4/0 600 м
[Ac trans]
+25.1 +10.5 40 +26 +34 жарко 1005.9 773.6
00 16.09 С 5 15 км дым 4/0 2000 м
[Ac trans]
+23.6 +10.8 44 +25 +25 комфорт 1003.7 773.6 +14.4 +25.7
03 16.09 С 3 12 км дым 1/0 2000 м
[As op]
+20.4 +8.6 47 +22 +22 комфорт 1005.3 775.6
15 16.09 З 2 4000 м 8/3 800 м
[Cu hum As trans]
+18.4 +11.0 62 +19 +22 тепло 1012.5 777.0
18 16.09 С 2 5000 м мгла 3/1 840 м
[Cu hum As trans]
+22.4 +12.4 53 +25 +40 комфорт 1010.5 775.9 +15.0 +23.0
21 16.09 З 2 4000 м мгла 3/1 840 м
[Cu hum As trans]
+27.6 +14.6 45 +30 +40 жарко 1005.1 773.5
00 17.09 ЮВ 2 5000 м мгла 8/6 600 м
[Cu Sc As trans]
+23.6 +15.0 59 +26 +27 жарко 1003.3 773.6 +15.0 +28.2
03 17.09 С 3 5000 м 6/3 840 м
[Cu hum As trans]
+20.8 +15.8 73 +24 +24 комфорт 1004.5 775.4
06 17.09 СЗ 2 6000 м дым 6/6 600 м
[Cu med, cong]
+17.8 +14.9 83 +18 +18 тепло 1006.7 776.6 +15.0 +28.2
09 17.09 С 1 4000 м дымка 10/6 500 м
[St]
+16.8 +14.9 89 +18 +18 тепло 1007.9 776.0
12 17.09 С 1 10 км дым 9/4 600 м
[St As trans]
+14.8 +13.9 94 +15 +15 тепло 1010.6 776.5 13
15 17.09 СВ 1 3000 м мгла 5/3 800 м
[Cu hum As trans]
+18.6 +14.8 79 +20 +25 тепло 1013.8 778.0
18 17.09 СВ 3 8000 м мгла 6/5 840 м
[Cu hum As trans]
+24.1 +16.5 63 +28 +35 душно 1011.3 777.0 +14.0 +25.2
21 17.09 СВ 3 5000 м мгла 8/6 840 м
[Cu med, cong As trans]
+26.0 +17.1 58 +30 +33 душно 1005.6 774.2
00 18.09 С 7 4000 м осадки на расстоянии {ливн. осадки} 8/3 600 м
[Sc diur, vesp Ac As]
+22.6 +17.0 71 +27 +27 душно 1003.8 774.1 0.5
03 18.09 ЮЗ 2 2000 м в посл. час морось {дождь} 9/5 750 м
[Frnb Ac As]
+15.2 +13.7 91 +15 +15 по сезону 1008.8 777.7 4
06 18.09 Ю 2 12 км {дождь} 3/0 600 м
[Ci ing]
+14.8 +13.3 91 +14 +14 по сезону 1010.5 777.6 6
09 18.09 З 2 3000 м мгла {туман} 10/6 750 м
[Sc As op]
+14.4 +12.9 91 +14 +14 по сезону 1012.2 776.9
12 18.09 З 1 2000 м мгла {туман} 10/5 750 м
[Sc As op Cc]
+14.6 +13.1 91 +15 +15 тепло 1013.7 776.6 +13.5 +28.6
15 18.09 СЗ 2 2000 м мгла 8/8 750 м
[Cu Sc]
+17.4 +14.5 83 +18 +19 тепло 1015.1 777.8
18 18.09 С 1 3000 м мгла 6/6 750 м
[Cu hum]
+21.4 +15.4 69 +25 +34 комфорт 1013.0 777.1 +13.5 +22.0
21 18.09 СВ 2 8000 м дым 6/6 800 м
[Cu med, cong]
+25.2 +15.7 56 +28 +34 жарко 1007.5 774.5
00 19.09 С 4 6000 м слабый дождь 9/9 600 м
[Cb cap]
+22.7 +15.1 62 +27 +27 душно 1005.6 774.5 2
03 19.09 СЗ 4 8000 м дым {морось} 5/1 800 м
[Cu med, cong As op]
+17.9 +14.5 80 +18 +18 тепло 1007.1 776.1 0.5
06 19.09 СЗ 3 12 км дым 9/9 600 м
[Cu hum]
+16.5 +13.8 84 +16 +16 тепло 1008.8 776.9 2
09 19.09 С 3 8000 м дым 10/10 840 м
[Cu hum]
+16.2 +13.8 86 +16 +16 тепло 1009.5 776.1
12 19.09 С 1 6000 м дым 9/9 840 м
[Cu hum]
+15.7 +13.8 88 +16 +16 тепло 1011.5 776.3 +15.5 +26.3

 

Местоположение метеостанции Mexico City (Мексика): широта 19.40 долгота -99.18 высота над уровнем моря 2303 м.

В архиве по умолчанию представлена погода в Mexico City за последнюю неделю. Архивные данные за месяц целиком и за предыдущие месяцы, начиная с января 2011 года, Вы можете получить, выбрав интересующий диапазон дат из раскрывающегося списка и нажав кнопку "Ввод!".

Внимание! Время в таблицах - всемирное. Для получения местного времени необходимо прибавить поправку, которая в Mexico City равна -6 ч.

Смотрите также архив погоды в соседних городах и на ближайших метеорологических станциях:

Погода в Geografia Unam (Мексика) (9 км)
Погода в Toluca (Мексика) (54 км)
Погода в Cuernavaca (Мексика) (58 км)
Погода в Zacatepec (Мексика) (78 км)
Погода в Pachuca (Мексика) (93 км)
Погода в Tlaxcala (Мексика) (98 км)
Погода в Tlaxcala Airport (Мексика) (99 км)
Погода в Tulancingo (Мексика) (114 км)
Погода в Puebla (Мексика) (114 км)
Погода в Queretaro (Мексика) (183 км)

Пояснения к столбцам:

Ветер - указаны скорость ветра в м/с - средняя за 10 мин, порывы в срок и между сроками (в фигурных скобках) и направление, откуда дует ветер: С - северный, СВ - северо-восточный, В - восточный, ЮВ - юго-восточный, Ю - южный, ЮЗ - юго-западный, З - западный, СЗ - северо-западный.
Видимость - горизонтальная дальность видимости в метрах или километрах. При видимости от 1 до 10 км при отсутствии осадков обычно наблюдается дымка, при ухудшении видимости до 1 км и менее - туман. В сухую погоду видимость может ухудшаться дымом, пылью или мглою.
Явления - указаны атмосферные явления, наблюдавшиеся в срок или в последний час перед сроком; фигурными скобками обозначены явления, наблюдавшиеся между сроками (за 1-3 часа до срока); квадратными скобками обозначены град или гололедные отложения с указанием их диаметра в мм.
Облачность - указаны через наклонную черту общая и нижняя облачность в баллах и высота нижней границы облаков в метрах; квадратными скобками обозначены формы облаков: Ci - перистые, Cs - перисто-слоистые, Cc - перисто-кучевые, Ac - высококучевые, As - высокослоистые, Sc - слоисто-кучевые, Ns - слоисто-дождевые, Cu - кучевые, Cb - кучево-дождевые. Подробнее классификацию облаков см. в Атласе облаков (PDF).
T - Температура воздуха - температура, измеренная на высоте 2 м над землей.
Td - Температура точки росы - температура, при понижении до которой содержащийся в воздухе водяной пар достигнет насыщения.
f - Относительная влажность воздуха - влажноcть воздуха, измеренная на высоте 2 м над землей.
Te - Эффективная температура - температура, которую ощущает одетый по сезону человек в тени. Характеристика душности погоды. При расчете учитывается влияние влажности воздуха и скорости ветра на теплоощущения человека.
Tes - Эффективная температура на солнце - температура, которую ощущает человек, с поправкой на солнечный нагрев. Характеристика знойности погоды. Зависит от высоты солнца над горизонтом, облачности и скорости ветра. Ночью, в пасмурную погоду, а также при ветре 12 м/с и более поправка равна нулю.
P - Атмосферное давление - приведенное к уровню моря атмосферное давление.
Po - Атмосферное давление - измеренное на уровне метеостанции атмосферное давление.
Tmin - Минимальная температура - минимум температуры воздуха на высоте 2 м над землей.
Tmax - Максимальная температура - максимум температуры воздуха на высоте 2 м над землей.
R - Количество осадков - Количество выпавших осадков за период времени, мм. При наведении курсора мыши на число - период времени, за который выпало указанное количество осадков.
R24 - Количество осадков - Количество выпавших осадков за 24 часа, мм.
S - Снежный покров - Высота снежного покрова, см. При наведении курсора мыши на число - состояние снежного покрова и степень покрытия местности в баллах.